Knoxville, IA

3:16 PM CDT on May 27, 2018 (GMT -0500)
Knoxville Municipal

Weather History for KOXV - April, 2012

Change the Weather History Date:

Sunday, April 15, 2012

  Actual Average Record
Temperature  
Mean Temperature 65 °F -  
Max Temperature 73 °F 61 °F 87 °F (2002)
Min Temperature 57 °F 39 °F 22 °F (1962)
Growing Degree Days 15 (Base 50)    
Moisture  
Dew Point 54 °F    
Average Humidity 67    
Maximum Humidity 88    
Minimum Humidity 39    
Precipitation  
Precipitation 0.25 in - - ()
Sea Level Pressure  
Sea Level Pressure 29.47 in    
Wind  
Wind Speed 15 mph (South)    
Max Wind Speed 34 mph    
Max Gust Speed 47 mph    
Visibility 10 miles    
Events Rain    
Averages and records for this station are not official NWS values.
T = Trace of Precipitation, MM = Missing Value Source: NWS Daily Summary

Daily Weather History Graph

Daily Weather History Graph

Search for Another Location

Airport or City:

Astronomy

Apr. 15, 2012 Rise Set
Actual Time 6:32 AM CDT 7:53 PM CDT
Civil Twilight 6:03 AM CDT 8:21 PM CDT
Nautical Twilight 5:29 AM CDT 8:56 PM CDT
Astronomical Twilight 4:52 AM CDT 9:33 PM CDT
Moon 3:33 AM CDT (4/15) 2:45 PM CDT (4/15)
Length of Visible Light 14h 18m
Length of Day
13h 21m
Waning Crescent, 27% of the Moon is Illuminated
Apr 15
Waning Crescent
Apr 21
New
Apr 29
First Quarter
May 5
Full
May 12
Last Quarter

Hourly Weather History & Observations

Time (CDT) Temp. Dew Point Humidity Pressure Visibility Wind Dir Wind Speed Gust Speed Precip Events Conditions
12:15 AM 57.2 °F 53.6 °F 88% 29.57 in 7.0 mi East 5.8 mph - 0.03 in Rain Heavy Rain
12:35 AM 57.2 °F 53.6 °F 88% 29.56 in 10.0 mi East 3.5 mph - 0.03 in   Overcast
12:55 AM 57.2 °F 53.6 °F 88% 29.56 in 10.0 mi ESE 8.1 mph - 0.03 in   Overcast
1:15 AM 57.2 °F 53.6 °F 88% 29.55 in 10.0 mi ESE 6.9 mph - N/A   Overcast
1:35 AM 59.0 °F 53.6 °F 82% 29.50 in 10.0 mi ESE 11.5 mph - N/A   Light Drizzle
1:55 AM 60.8 °F 55.4 °F 82% 29.51 in 10.0 mi SE 11.5 mph - N/A   Mostly Cloudy
2:15 AM 60.8 °F 55.4 °F 82% 29.52 in 10.0 mi SSE 9.2 mph - N/A   Scattered Clouds
2:35 AM 62.6 °F 55.4 °F 77% 29.51 in 10.0 mi SSE 11.5 mph - N/A   Clear
2:55 AM 62.6 °F 57.2 °F 82% 29.52 in 10.0 mi South 11.5 mph - N/A   Clear
3:15 AM 64.4 °F 57.2 °F 77% 29.54 in 10.0 mi South 17.3 mph 23.0 mph 0.01 in   Scattered Clouds
3:35 AM 64.4 °F 57.2 °F 77% 29.53 in 10.0 mi South 16.1 mph 21.9 mph 0.02 in Rain Light Rain
3:55 AM 64.4 °F 57.2 °F 77% 29.51 in 10.0 mi South 18.4 mph 25.3 mph 0.07 in Rain Heavy Rain
4:15 AM 64.4 °F 57.2 °F 77% 29.54 in 10.0 mi South 17.3 mph 24.2 mph N/A   Scattered Clouds
4:35 AM 64.4 °F 57.2 °F 77% 29.53 in 10.0 mi South 12.7 mph - N/A Rain Light Rain
4:55 AM 64.4 °F 57.2 °F 77% 29.56 in 10.0 mi South 10.4 mph - N/A Rain Light Rain
5:15 AM 64.4 °F 57.2 °F 77% 29.58 in 10.0 mi SSW 13.8 mph - N/A Rain Rain
5:35 AM 64.4 °F 57.2 °F 77% 29.55 in 10.0 mi South 5.8 mph - 0.02 in Rain Light Rain
5:55 AM 62.6 °F 57.2 °F 82% 29.57 in 10.0 mi South 8.1 mph - 0.03 in Rain Light Rain
6:15 AM 62.6 °F 55.4 °F 77% 29.59 in 10.0 mi SW 9.2 mph 20.7 mph 0.02 in Rain Light Rain
6:35 AM 62.6 °F 55.4 °F 77% 29.59 in 10.0 mi SSW 9.2 mph 18.4 mph 0.03 in Rain Light Rain
6:55 AM 60.8 °F 55.4 °F 82% 29.54 in 10.0 mi SSE 9.2 mph 19.6 mph 0.05 in Rain Rain
7:15 AM 59.0 °F 53.6 °F 82% 29.54 in 10.0 mi SSE 10.4 mph - 0.01 in   Mostly Cloudy
7:35 AM 60.8 °F 53.6 °F 77% 29.54 in 10.0 mi South 10.4 mph - 0.01 in   Scattered Clouds
7:55 AM 60.8 °F 53.6 °F 77% 29.57 in 10.0 mi South 8.1 mph - 0.01 in Rain Light Rain
8:15 AM 59.0 °F 53.6 °F 82% 29.57 in 10.0 mi SSE 16.1 mph 24.2 mph 0.01 in Rain Light Rain
8:35 AM 59.0 °F 53.6 °F 82% 29.53 in 10.0 mi SE 13.8 mph - 0.06 in Rain Rain
8:55 AM 60.8 °F 55.4 °F 82% 29.53 in 10.0 mi SSE 13.8 mph - 0.06 in   Mostly Cloudy
9:15 AM 62.6 °F 55.4 °F 77% 29.52 in 10.0 mi SE 15.0 mph - N/A   Scattered Clouds
9:35 AM 62.6 °F 55.4 °F 77% 29.52 in 10.0 mi SSE 15.0 mph 18.4 mph N/A   Scattered Clouds
9:55 AM 64.4 °F 57.2 °F 77% 29.50 in 10.0 mi SSE 16.1 mph 23.0 mph N/A   Clear
10:15 AM 66.2 °F 59.0 °F 78% 29.49 in 10.0 mi SSE 16.1 mph 24.2 mph N/A   Clear
10:35 AM 68.0 °F 59.0 °F 73% 29.48 in 10.0 mi SSE 12.7 mph 19.6 mph N/A   Clear
10:55 AM 69.8 °F 60.8 °F 73% 29.48 in 10.0 mi South 19.6 mph 24.2 mph N/A   Clear
11:15 AM 69.8 °F 59.0 °F 68% 29.47 in 10.0 mi South 25.3 mph 33.4 mph N/A   Clear
11:35 AM 69.8 °F 59.0 °F 68% 29.47 in 10.0 mi South 20.7 mph 29.9 mph N/A   Clear
11:55 AM 69.8 °F 59.0 °F 68% 29.46 in 10.0 mi South 25.3 mph 38.0 mph N/A   Clear
12:15 PM 69.8 °F 57.2 °F 64% 29.46 in 10.0 mi South 25.3 mph 35.7 mph N/A   Clear
12:35 PM 71.6 °F 57.2 °F 60% 29.46 in 10.0 mi South 33.4 mph 43.7 mph N/A   Clear
12:55 PM 71.6 °F 57.2 °F 60% 29.46 in 10.0 mi South 29.9 mph 41.4 mph N/A   Clear
1:15 PM 71.6 °F 57.2 °F 60% 29.46 in 10.0 mi South 31.1 mph 41.4 mph N/A   Clear
1:35 PM 73.4 °F 57.2 °F 57% 29.46 in 10.0 mi South 23.0 mph 34.5 mph N/A   Clear
1:55 PM 71.6 °F 57.2 °F 60% 29.44 in 10.0 mi South 28.8 mph 40.3 mph N/A   Clear
2:15 PM 73.4 °F 57.2 °F 57% 29.44 in 10.0 mi South 25.3 mph 35.7 mph N/A   Clear
2:35 PM 73.4 °F 57.2 °F 57% 29.43 in 10.0 mi South 28.8 mph 38.0 mph N/A   Clear
2:55 PM 73.4 °F 57.2 °F 57% 29.43 in 10.0 mi South 27.6 mph 36.8 mph N/A   Clear
3:15 PM 73.4 °F 57.2 °F 57% 29.41 in 10.0 mi South 28.8 mph 34.5 mph N/A   Clear
3:35 PM 73.4 °F 57.2 °F 57% 29.41 in 10.0 mi South 29.9 mph 41.4 mph N/A   Clear
3:55 PM 71.6 °F 55.4 °F 57% 29.40 in 10.0 mi South 24.2 mph 41.4 mph N/A   Clear
4:15 PM 73.4 °F 55.4 °F 53% 29.40 in 10.0 mi South 29.9 mph 41.4 mph N/A   Clear
4:35 PM 71.6 °F 57.2 °F 60% 29.37 in 10.0 mi SSE 28.8 mph 42.6 mph N/A   Scattered Clouds
4:55 PM 71.6 °F 57.2 °F 60% 29.36 in 10.0 mi South 33.4 mph 41.4 mph N/A   Scattered Clouds
5:15 PM 71.6 °F 57.2 °F 60% 29.35 in 10.0 mi South 32.2 mph 47.2 mph N/A   Scattered Clouds
5:35 PM 71.6 °F 55.4 °F 57% 29.36 in 10.0 mi South 34.5 mph 42.6 mph N/A   Clear
5:55 PM 69.8 °F 55.4 °F 60% 29.37 in 10.0 mi South 29.9 mph 38.0 mph N/A   Clear
6:15 PM 69.8 °F 55.4 °F 60% 29.37 in 10.0 mi South 26.5 mph 35.7 mph N/A   Clear
6:35 PM 69.8 °F 53.6 °F 56% 29.37 in 10.0 mi South 21.9 mph 38.0 mph N/A   Clear
6:55 PM 69.8 °F 53.6 °F 56% 29.36 in 10.0 mi South 27.6 mph 35.7 mph N/A   Scattered Clouds
7:15 PM 68.0 °F 53.6 °F 60% 29.37 in 10.0 mi South 20.7 mph 34.5 mph N/A   Scattered Clouds
7:35 PM 66.2 °F 53.6 °F 64% 29.37 in 10.0 mi South 20.7 mph 28.8 mph N/A   Mostly Cloudy
7:55 PM 66.2 °F 51.8 °F 60% 29.38 in 10.0 mi SSW 21.9 mph 28.8 mph N/A   Overcast
8:15 PM 66.2 °F 48.2 °F 52% 29.40 in 10.0 mi SSW 12.7 mph 26.5 mph N/A   Scattered Clouds
8:35 PM 64.4 °F 44.6 °F 49% 29.40 in 10.0 mi SSW 16.1 mph 27.6 mph N/A   Scattered Clouds
8:55 PM 64.4 °F 41.0 °F 42% 29.41 in 10.0 mi SSW 18.4 mph 21.9 mph N/A   Scattered Clouds
9:15 PM 62.6 °F 37.4 °F 39% 29.42 in 10.0 mi SSW 16.1 mph 23.0 mph N/A   Clear
9:35 PM 62.6 °F 37.4 °F 39% 29.43 in 10.0 mi SSW 11.5 mph 23.0 mph N/A   Clear
9:55 PM 60.8 °F 37.4 °F 42% 29.43 in 10.0 mi South 12.7 mph - N/A   Clear
10:15 PM 60.8 °F 37.4 °F 42% 29.43 in 10.0 mi South 11.5 mph - N/A   Clear
10:35 PM 59.0 °F 37.4 °F 45% 29.43 in 10.0 mi SSW 12.7 mph - N/A   Clear
11:15 PM 57.2 °F 41.0 °F 55% 29.43 in 10.0 mi SW 15.0 mph 21.9 mph N/A   Clear
11:35 PM 57.2 °F 42.8 °F 59% 29.42 in 10.0 mi SSW 19.6 mph 28.8 mph N/A   Mostly Cloudy
11:55 PM 57.2 °F 42.8 °F 59% 29.43 in 10.0 mi SW 18.4 mph 29.9 mph N/A   Scattered Clouds